Temperature
18 18 17 17 17 17 17 18 18 17 18 17 17 17 17 18 18 18 18 18 18 18 18 18 18 18 18 18 18 17 17 17 17 17 17 17 17 17 17 16 16 16 16
18 18 18 17 17 17 17 17 17 17 17 17 17 18 18 18 18 18 18 18 18 18 18 18 18 18 18 18 18 17 17 17 17 17 17 17 17 17 17 16 16 16 16
17 17 18 17 17 17 17 17 17 17 17 17 17 17 18 18 18 18 18 18 18 18 18 18 18 18 18 18 18 17 17 17 17 17 17 17 17 17 16 16 16 16 16
18 17 17 17 17 17 17 17 18 17 17 17 17 17 17 17 17 18 18 18 18 18 18 18 17 17 17 17 17 17 17 17 17 17 17 17 17 17 16 16 16 16 16
17 17 17 17 17 17 17 17 17 17 17 17 17 17 17 17 17 17 18 18 18 18 18 17 17 17 17 17 17 17 17 17 17 17 17 17 17 17 16 16 16 16 16
17 17 17 17 17 17 17 17 17 17 17 17 17 17 17 17 17 17 17 18 18 18 17 17 17 17 17 17 17 17 17 17 17 17 17 17 16 16 16 16 16 16 16
17 17 17 17 17 17 17 17 17 17 17 17 17 17 17 17 17 17 17 17 17 17 17 17 17 17 17 17 17 17 17 17 17 17 16 16 16 16 16 16 16 16 16
17 17 17 17 17 17 17 17 17 17 17 17 17 17 17 17 17 17 17 17 17 17 17 17 17 17 17 17 17 17 17 17 17 16 16 16 16 16 16 16 16 16 16
17 17 17 17 17 17 17 17 17 17 16 16 16 17 17 17 17 17 17 17 17 17 17 17 17 17 17 17 17 17 16 16 16 16 16 16 16 16 16 16 16 15 15
17 17 17 17 17 16 16 16 16 16 16 16 16 16 16 17 17 17 17 17 17 17 17 17 17 17 17 17 17 16 16 16 16 16 16 16 16 15 15 15 15 15 15
17 17 17 17 16 16 16 16 16 16 16 16 16 16 16 16 16 16 16 17 17 17 16 16 16 16 17 17 16 16 16 16 16 16 16 16 15 15 15 15 15 15 15
17 17 17 16 16 16 16 16 16 16 16 16 16 16 16 16 16 16 16 16 16 16 16 16 16 16 16 16 16 16 16 16 16 16 16 15 15 15 15 15 15 15 14
17 17 17 16 16 16 16 16 16 16 16 16 16 16 16 16 16 16 16 16 16 16 16 16 16 16 16 16 16 16 16 16 16 16 15 15 15 15 15 14 14 14 14
16 16 16 16 16 16 16 16 16 16 16 16 16 16 16 16 16 16 16 16 16 15 15 15 15 15 15 15 16 16 16 15 15 15 15 15 15 15 14 14 14 14 14
16 16 16 16 16 16 16 16 16 16 16 16 16 16 16 16 15 15 16 16 15 15 15 15 15 15 15 15 15 15 15 15 15 15 15 15 15 14 14 14 14 14 14
16 16 16 16 16 16 16 16 16 15 15 16 15 15 15 15 15 15 15 15 15 15 15 15 15 15 15 15 15 15 15 15 15 14 14 14 14 14 14 14 14 14 14
16 16 16 16 16 16 16 16 15 15 15 15 15 15 15 15 15 15 15 15 15 15 15 15 14 14 14 14 14 14 14 14 14 14 14 14 14 14 14 14 14 13 13
16 16 16 16 16 15 15 15 15 15 15 15 15 15 15 15 15 15 15 15 14 14 14 14 14 14 14 14 14 14 14 13 13 13 14 14 14 13 13 13 13 13 13
16 16 16 16 15 15 15 15 15 15 15 15 15 15 15 15 15 14 14 14 14 14 14 14 14 14 13 13 13 13 13 13 13 13 13 13 13 13 13 13 13 13 13
16 16 16 15 15 15 15 15 15 14 14 14 14 14 14 14 14 14 14 14 14 14 14 13 13 13 13 13 13 13 13 13 13 13 13 13 13 13 13 13 13 12 12
16 16 15 15 15 15 15 15 14 14 14 14 14 14 14 14 14 14 14 14 14 13 13 13 13 13 13 12 12 12 12 12 12 12 12 12 12 12 12 12 12 12 12
16 15 15 15 15 15 15 14 14 14 14 14 14 14 13 13 13 13 13 13 13 13 13 13 13 12 12 12 12 12 12 12 12 12 12 12 12 12 12 12 12 12 12
16 15 15 15 15 15 14 14 14 14 14 13 13 13 13 13 13 13 13 13 13 13 13 13 12 12 12 12 12 12 12 12 12 12 11 11 12 12 12 11 11 11 11
15 15 15 15 15 14 14 14 14 13 13 13 13 13 13 13 13 13 13 13 13 12 12 12 12 12 12 12 12 12 12 11 11 11 11 11 11 11 11 11 11 11 11
15 15 15 15 14 14 14 14 13 13 13 13 13 12 12 12 12 12 12 12 12 12 12 12 12 12 12 12 11 11 11 11 11 11 11 11 11 11 11 11 11 11 11
15 15 14 14 14 14 14 13 13 13 13 13 12 12 12 12 12 12 12 12 12 12 12 12 12 12 12 12 12 11 11 11 11 11 11 11 11 11 10 11 11 11 11
Wind_Speed
1 1 1 2 2 2 2 2 2 2 2 3 4 4 4 5 6 6 7 11 13 12 12 13 14 13 13 14 14 14 14 14 14 14 13 13 13 13 13 13 13 13 13
2 1 1 1 1 2 2 2 2 2 2 2 2 3 4 5 6 7 7 10 12 12 13 14 14 14 13 13 14 14 13 13 13 13 13 13 13 13 13 12 13 13 13
3 2 1 1 1 1 1 1 1 1 1 1 2 3 3 4 5 6 7 7 9 12 13 14 14 13 13 12 13 13 12 12 12 12 12 12 12 13 14 13 13 13 13
3 2 1 1 1 1 1 1 1 1 1 1 1 2 2 3 4 5 6 7 7 8 11 14 14 13 12 12 12 12 12 11 12 12 11 11 11 11 13 12 13 13 14
3 3 1 1 0 1 0 1 1 1 1 1 1 1 1 2 3 4 5 6 7 7 7 10 13 14 13 12 12 12 12 11 12 11 11 10 9 9 10 10 11 12 13
3 3 1 0 0 1 0 0 1 0 0 1 2 1 1 2 2 3 4 4 5 7 7 7 8 10 12 12 11 11 11 11 11 11 10 10 9 9 9 9 9 9 10
2 2 1 1 1 1 1 1 1 1 1 0 1 2 3 2 1 2 2 2 3 5 5 6 6 7 8 11 12 11 11 11 11 11 11 10 9 9 9 9 8 8 9
2 2 2 1 1 1 1 1 1 1 1 1 2 1 2 3 2 1 1 2 2 2 3 5 6 7 8 8 10 12 12 11 11 11 10 10 9 9 9 9 9 9 8
2 1 1 1 1 2 1 1 1 1 1 1 1 2 2 2 2 2 1 1 2 2 2 4 5 6 8 9 9 11 12 12 12 11 10 10 10 9 9 9 9 9 9
1 1 1 1 1 1 1 1 1 1 2 1 1 1 2 3 2 1 2 2 0 2 3 3 3 4 6 8 9 11 12 12 12 12 11 10 10 10 10 10 9 9 9
0 1 1 1 0 0 0 0 1 1 1 1 0 1 0 0 1 2 1 2 1 1 1 2 2 3 5 6 7 10 12 13 12 12 12 11 10 10 10 9 8 8 8
1 1 0 0 0 1 0 1 1 1 1 1 0 0 1 1 1 2 2 2 1 2 1 0 0 1 3 5 6 8 10 11 12 12 12 12 11 10 10 9 9 8 8
1 1 0 0 0 1 1 1 1 1 1 1 1 1 1 1 1 2 2 1 1 1 1 1 0 1 2 3 5 7 8 9 10 10 10 11 11 11 10 10 9 8 8
1 1 0 0 0 0 1 1 1 1 1 0 1 1 1 1 1 2 2 2 1 1 1 1 1 0 2 4 5 6 6 8 8 8 8 9 10 12 11 10 9 8 8
1 1 1 1 1 1 0 1 1 0 0 0 1 1 1 1 0 0 1 2 3 2 1 1 0 1 0 2 3 4 5 7 7 7 7 8 9 11 11 10 9 9 8
1 1 1 1 1 1 2 2 1 1 1 0 0 0 1 1 1 1 1 1 2 3 2 1 0 0 1 1 2 4 5 5 5 6 6 6 8 9 10 10 10 9 9
1 1 1 1 1 1 1 1 1 1 1 2 2 1 1 1 1 1 1 1 1 2 3 0 0 1 2 2 2 2 3 3 3 4 5 6 6 7 8 9 9 9 9
1 1 1 1 1 1 1 1 1 1 1 1 1 1 1 1 1 1 1 1 1 2 3 2 0 1 1 1 2 2 2 2 2 2 3 4 5 5 7 8 9 9 9
1 1 1 1 1 1 0 0 1 0 1 1 1 1 0 1 1 1 1 1 1 2 2 3 1 0 1 1 2 2 2 1 1 1 2 3 4 5 6 7 9 9 9
2 1 1 1 1 1 1 0 1 1 1 1 1 1 1 1 1 1 1 1 2 2 3 3 2 1 0 1 2 1 0 0 0 0 1 1 2 2 4 5 6 8 9
2 1 2 1 1 1 1 1 1 2 1 1 1 1 1 1 1 1 1 1 2 2 2 2 2 1 0 1 1 1 1 0 1 0 1 1 1 1 2 4 5 7 8
2 2 2 2 1 1 1 2 2 2 1 1 0 1 1 2 2 2 2 2 3 3 3 2 2 2 2 2 2 2 2 1 0 1 2 0 1 1 2 4 5 7 7
3 2 2 2 2 0 1 2 2 2 1 0 0 0 1 2 2 2 2 3 1 1 3 4 4 4 4 4 3 2 2 2 2 2 2 1 1 2 3 5 6 7 8
3 3 2 3 2 1 0 1 2 2 1 0 0 1 1 1 1 0 1 1 2 2 3 3 4 5 5 5 5 4 4 2 0 1 2 2 2 2 2 3 7 8 9
2 2 2 2 2 2 2 1 2 1 0 1 1 0 1 1 2 0 1 0 2 3 3 3 3 4 5 5 5 3 3 3 1 2 1 2 2 1 2 2 5 7 8
3 3 2 3 3 3 2 2 2 1 1 1 1 2 2 2 2 1 1 1 1 3 2 2 2 2 1 2 4 4 5 4 2 2 2 2 2 1 1 2 2 4 5
Wind_Direction
183 180 177 192 197 200 200 207 220 217 219 222 221 206 198 200 196 199 203 206 208 209 207 205 206 205 204 206 208 209 210 210 208 205 204 206 206 208 208 207 206 205 202
150 148 178 185 195 201 208 204 210 208 213 213 213 209 202 201 198 201 206 210 211 210 211 210 207 206 206 207 208 209 209 210 207 207 208 209 208 209 210 209 208 206 205
150 145 165 185 228 224 218 213 224 207 215 206 217 226 217 204 200 202 203 204 207 211 211 209 206 206 209 208 207 207 205 204 203 203 204 207 208 210 210 210 208 207 205
145 130 134 204 241 200 165 180 186 179 231 219 232 248 232 211 211 208 203 205 204 208 214 214 211 210 210 211 209 206 203 202 200 199 199 202 204 206 207 208 210 209 207
137 131 136 212 205 100 102 186 103 162 194 243 259 255 237 225 224 216 204 205 202 203 208 216 214 211 212 215 212 208 201 197 197 196 196 196 193 195 200 202 206 209 208
135 135 131 211 129 106 59 69 86 76 173 240 278 295 276 239 221 214 210 200 193 197 199 205 209 210 209 207 201 195 192 191 191 192 192 190 189 192 192 194 196 197 200
133 130 119 131 133 143 167 125 96 67 337 30 51 348 331 311 238 223 200 183 195 195 192 198 199 200 205 205 196 192 192 193 194 195 193 193 192 193 193 193 194 194 196
142 148 134 157 149 134 103 78 80 90 325 83 128 97 357 350 350 335 195 186 187 174 190 202 200 200 195 191 194 195 197 198 198 196 194 192 193 196 195 198 197 197 197
138 122 109 118 137 153 171 171 130 143 203 306 146 147 157 228 291 325 293 201 182 185 201 198 197 196 191 188 192 196 196 198 198 199 199 197 197 197 198 202 201 203 204
127 150 110 88 110 148 169 210 143 146 157 243 315 247 186 172 169 294 322 320 253 194 211 213 195 180 183 184 189 193 195 199 202 204 203 203 201 200 201 204 207 205 206
3 162 133 65 89 134 134 125 120 121 145 168 239 281 280 98 149 169 257 308 327 278 235 216 182 180 179 179 190 197 200 200 202 203 203 202 203 202 199 198 199 202 206
313 335 40 78 136 150 154 170 151 129 131 143 176 111 157 188 224 178 202 233 259 287 304 33 155 177 183 183 190 195 200 199 200 202 202 203 204 199 196 197 202 205 208
294 296 301 204 211 212 180 138 123 119 135 136 202 224 212 225 208 179 169 198 220 302 7 19 320 176 183 180 188 193 194 192 193 196 198 201 202 197 196 199 203 206 207
226 234 221 332 300 197 146 124 110 157 123 190 250 236 238 262 212 176 174 164 145 8 11 301 352 33 183 180 194 191 186 182 183 184 193 196 196 194 195 197 198 200 203
217 182 114 73 22 25 51 126 88 7 72 252 260 274 278 301 43 113 156 164 160 168 242 268 355 332 213 157 170 171 175 176 178 182 187 191 191 190 192 193 195 197 195
206 146 103 75 48 53 61 65 45 29 49 316 209 42 22 15 49 53 99 160 158 161 185 230 235 335 52 100 109 148 168 168 176 179 179 184 187 189 193 194 195 193 194
164 142 150 116 76 61 65 70 44 59 65 23 29 63 57 64 68 50 60 82 98 124 141 199 10 35 62 69 65 102 126 141 169 172 169 171 176 187 189 189 191 193 196
153 142 135 128 121 101 97 91 81 84 94 65 41 84 53 79 63 59 77 88 108 130 137 149 132 49 55 90 98 101 100 118 147 147 170 178 181 186 192 190 190 193 198
132 118 121 134 130 111 112 132 163 158 118 100 117 120 133 95 69 60 89 95 103 108 126 135 148 113 55 76 76 78 74 69 128 170 183 194 196 196 192 197 197 197 201
138 136 130 121 104 76 69 79 83 86 75 61 79 98 98 121 177 183 125 119 115 107 110 117 118 101 79 64 101 120 69 35 17 46 134 170 184 191 200 204 207 208 210
162 155 125 118 107 103 83 97 97 101 93 61 30 22 54 82 69 162 162 164 132 122 124 125 123 99 103 147 188 198 170 150 358 85 95 79 111 152 225 223 223 221 221
171 144 147 138 122 117 102 97 107 97 91 93 42 334 360 21 28 34 73 130 144 152 163 160 169 184 222 215 204 179 159 129 277 252 118 299 138 230 225 216 220 220 221
169 160 173 158 155 133 108 107 100 111 93 102 175 356 351 13 29 35 40 44 48 174 177 178 190 211 211 207 185 189 188 179 211 211 148 234 244 244 237 231 226 228 229
176 180 182 178 164 200 180 161 137 112 93 326 245 176 148 328 340 58 68 19 339 306 254 209 204 218 219 209 193 192 190 172 231 250 166 200 245 249 251 233 235 234 235
188 190 192 181 187 242 238 182 149 121 97 296 295 239 187 241 291 214 107 44 332 316 306 256 230 222 223 218 193 158 158 155 215 258 208 179 225 258 266 259 246 242 240
191 185 200 200 193 218 228 205 178 168 213 280 309 310 288 270 282 292 152 172 277 287 305 333 338 328 240 207 197 187 183 183 194 233 223 176 200 185 287 272 250 240 241
Height
1524 1524 1524 1524 1525 1525 1525 1526 1526 1526 1527 1528 1528 1529 1529 1530 1532 1533 1534 1535 1536 1537 1538 1538 1539 1540 1541 1542 1542 1543 1544 1545 1546 1548 1549 1550 1551 1553 1554 1555 1556 1557 1559
1524 1524 1524 1524 1524 1524 1524 1525 1525 1525 1526 1526 1527 1527 1528 1529 1530 1531 1532 1533 1534 1535 1536 1537 1537 1538 1539 1540 1540 1541 1542 1543 1544 1546 1547 1548 1549 1551 1552 1553 1554 1555 1557
1523 1523 1523 1523 1523 1523 1523 1524 1524 1524 1524 1525 1525 1526 1526 1527 1528 1529 1530 1531 1532 1533 1533 1534 1535 1536 1537 1537 1538 1539 1540 1541 1542 1544 1545 1546 1547 1548 1550 1551 1552 1554 1555
1521 1522 1522 1522 1522 1522 1522 1522 1522 1522 1522 1523 1523 1524 1525 1525 1526 1527 1528 1529 1529 1530 1531 1532 1533 1534 1534 1535 1536 1536 1537 1538 1540 1541 1543 1544 1545 1546 1548 1549 1550 1551 1552
1520 1521 1521 1521 1521 1521 1520 1520 1520 1520 1521 1521 1522 1522 1523 1524 1524 1525 1526 1526 1527 1528 1529 1530 1530 1531 1532 1533 1534 1534 1535 1536 1537 1539 1540 1542 1543 1544 1545 1546 1547 1549 1550
1520 1520 1520 1520 1520 1520 1520 1520 1519 1519 1520 1520 1520 1521 1521 1522 1523 1523 1524 1524 1525 1526 1526 1527 1528 1529 1530 1530 1531 1532 1533 1534 1535 1536 1538 1539 1540 1541 1542 1544 1545 1546 1547
1520 1520 1519 1519 1519 1519 1519 1519 1519 1519 1519 1519 1519 1519 1520 1520 1521 1521 1522 1522 1523 1524 1524 1525 1526 1527 1528 1528 1529 1530 1531 1532 1533 1534 1535 1536 1537 1539 1540 1541 1542 1543 1545
1520 1520 1519 1519 1519 1518 1518 1518 1518 1518 1518 1518 1518 1518 1518 1520 1519 1520 1520 1521 1521 1522 1522 1523 1524 1524 1525 1526 1527 1528 1529 1530 1531 1532 1533 1534 1535 1536 1537 1538 1540 1541 1542
1521 1520 1519 1519 1518 1518 1517 1517 1517 1517 1517 1517 1517 1518 1518 1517 1518 1519 1519 1519 1519 1520 1520 1521 1522 1522 1523 1524 1525 1526 1527 1527 1528 1529 1530 1531 1532 1534 1535 1536 1537 1538 1539
1520 1520 1519 1519 1518 1517 1517 1517 1516 1516 1516 1516 1516 1516 1517 1517 1517 1517 1517 1517 1518 1518 1518 1519 1520 1521 1521 1522 1522 1523 1524 1525 1526 1527 1528 1529 1530 1531 1532 1534 1535 1535 1537
1520 1520 1519 1518 1517 1517 1516 1516 1516 1516 1515 1515 1515 1515 1515 1515 1515 1515 1515 1516 1516 1516 1517 1517 1518 1518 1519 1520 1520 1521 1522 1523 1524 1525 1526 1527 1528 1529 1530 1531 1532 1533 1534
1520 1519 1519 1518 1517 1516 1516 1515 1515 1515 1515 1514 1514 1514 1514 1514 1513 1513 1513 1513 1514 1515 1515 1515 1515 1515 1516 1517 1518 1519 1519 1520 1521 1522 1523 1524 1526 1527 1528 1529 1530 1531 1532
1519 1518 1518 1517 1516 1516 1515 1514 1514 1514 1514 1513 1513 1512 1512 1512 1512 1512 1512 1512 1512 1513 1513 1513 1513 1514 1514 1514 1515 1516 1517 1518 1519 1520 1521 1522 1523 1524 1526 1527 1528 1529 1530
1518 1518 1517 1517 1516 1515 1514 1514 1513 1513 1513 1512 1511 1511 1510 1510 1510 1510 1511 1510 1510 1511 1511 1511 1512 1512 1512 1512 1513 1513 1514 1515 1516 1517 1518 1519 1520 1522 1523 1524 1526 1527 1528
1518 1517 1517 1516 1515 1514 1513 1513 1512 1512 1511 1511 1510 1510 1509 1509 1509 1508 1508 1509 1509 1508 1509 1510 1510 1510 1510 1510 1510 1511 1512 1513 1514 1515 1516 1517 1518 1519 1521 1522 1523 1524 1526
1517 1516 1516 1515 1514 1513 1512 1512 1511 1510 1510 1509 1508 1508 1508 1507 1507 1507 1507 1507 1507 1507 1507 1508 1508 1508 1509 1509 1509 1509 1510 1511 1512 1513 1514 1515 1516 1517 1519 1520 1521 1522 1523
1516 1515 1515 1514 1513 1512 1511 1511 1510 1509 1508 1508 1507 1507 1506 1506 1506 1505 1505 1505 1505 1505 1505 1506 1507 1507 1507 1507 1507 1508 1508 1509 1510 1511 1512 1513 1514 1515 1516 1517 1518 1519 1520
1515 1514 1514 1513 1512 1511 1510 1510 1509 1508 1507 1506 1506 1505 1505 1505 1504 1504 1504 1503 1503 1504 1504 1504 1505 1505 1505 1506 1506 1506 1507 1508 1508 1509 1510 1511 1512 1513 1514 1514 1516 1517 1518
1513 1513 1512 1512 1511 1510 1510 1509 1508 1507 1506 1505 1505 1504 1503 1503 1502 1502 1502 1502 1502 1502 1502 1502 1503 1503 1504 1504 1505 1505 1505 1506 1507 1507 1508 1509 1510 1511 1511 1512 1513 1514 1515
1512 1512 1511 1511 1510 1510 1509 1508 1507 1506 1505 1505 1504 1503 1503 1502 1502 1501 1501 1501 1501 1501 1501 1501 1501 1502 1502 1502 1503 1503 1503 1504 1504 1505 1506 1506 1507 1508 1509 1509 1510 1511 1512
1511 1510 1510 1509 1509 1508 1507 1507 1506 1505 1504 1503 1503 1502 1502 1501 1500 1500 1499 1499 1499 1499 1499 1499 1499 1500 1500 1500 1500 1501 1501 1501 1502 1503 1503 1504 1504 1505 1506 1506 1507 1508 1509
1509 1509 1508 1508 1507 1507 1506 1506 1505 1504 1503 1502 1501 1501 1500 1500 1499 1498 1498 1498 1498 1498 1498 1498 1497 1497 1498 1498 1498 1499 1499 1499 1499 1501 1501 1501 1502 1502 1503 1504 1504 1505 1506
1507 1506 1506 1506 1505 1505 1505 1504 1503 1503 1502 1501 1500 1499 1499 1498 1498 1497 1497 1497 1497 1496 1497 1496 1496 1495 1495 1496 1496 1496 1497 1497 1498 1498 1499 1498 1500 1500 1501 1501 1502 1502 1503
1505 1505 1504 1504 1504 1504 1503 1503 1502 1501 1500 1499 1499 1498 1498 1497 1497 1496 1495 1495 1495 1495 1495 1494 1494 1494 1494 1494 1494 1495 1495 1495 1496 1497 1497 1496 1496 1497 1498 1498 1499 1499 1499
1503 1503 1503 1503 1502 1502 1502 1501 1501 1500 1499 1498 1497 1497 1496 1496 1495 1495 1494 1493 1493 1493 1493 1493 1493 1492 1492 1492 1492 1493 1493 1493 1493 1494 1494 1494 1494 1494 1495 1495 1496 1496 1496
1501 1501 1501 1501 1500 1500 1500 1499 1499 1498 1497 1496 1496 1496 1495 1494 1494 1493 1492 1492 1491 1491 1491 1490 1491 1490 1490 1490 1490 1491 1491 1491 1490 1491 1491 1491 1491 1491 1491 1491 1492 1492 1492